Location: New Frontier Mobile Home Park
(32.8448°N, 116.9675°W)
Time: 23:14:00
(UTC+00:00)

Cosmos 1408 - Pass Details

Date: 14 July 2020
Orbit: 470 x 493 km, 82.6° (Epoch: 05 August)

Event Time Altitude Azimuth Distance (km) Brightness Sun altitude
Exits shadow 05:04:50 27° 40° (NE) 927 4.0 -22.2°
Drops below altitude 10° 05:06:47 10° 21° (NNE) 1,635 5.5 -22.5°
Sets 05:08:56 0° 14° (NNE) 2,517 6.7 -22.8°
